• In Schweiz
  • Länderverzeichnis
  • Für 7 Tage
  • Wassertemperatur
  • Satellitenkarten
  • Wetterkarte
  • Widgets
  • user-avatar
    Anmelden

    Stündliche Wetter Schiraz

    Heute, 23 Oktober, Dienstag

    Zeit Temperatur Niederschläge Wind Luftdruck Luftfeuchtigkeit
    00:00 +19°C° 0 mm 1 m/S 640 mmHg 46%
    01:00 +19°C° 0 mm 1 m/S 640 mmHg 48%
    02:00 +18°C° 0 mm 1 m/S 639 mmHg 51%
    03:00 +18°C° 0 mm 1 m/S 639 mmHg 52%
    04:00 +18°C° 0 mm 1 m/S 639 mmHg 55%
    05:00 +16°C° 0 mm 1 m/S 639 mmHg 56%
    06:00 +16°C° 0 mm 1 m/S 639 mmHg 56%
    07:00 +16°C° 0 mm 1 m/S 639 mmHg 57%
    08:00 +18°C° 0 mm 1 m/S 640 mmHg 50%
    09:00 +20°C° 0 mm 1 m/S 640 mmHg 43%
    10:00 +22°C° 0 mm 1 m/S 641 mmHg 39%
    11:00 +21°C° 0 mm 2 m/S 641 mmHg 34%
    12:00 +23°C° 0 mm 2 m/S 641 mmHg 29%
    13:00 +24°C° 0 mm 2 m/S 641 mmHg 24%
    14:00 +25°C° 0 mm 3 m/S 640 mmHg 24%
    15:00 +25°C° 0 mm 3 m/S 640 mmHg 23%
    16:00 +24°C° 0 mm 3 m/S 640 mmHg 23%
    17:00 +24°C° 0 mm 3 m/S 639 mmHg 25%
    18:00 +23°C° 0 mm 2 m/S 639 mmHg 28%
    19:00 +21°C° 0 mm 2 m/S 639 mmHg 31%
    20:00 +20°C° 0 mm 2 m/S 639 mmHg 33%
    21:00 +20°C° 0 mm 2 m/S 639 mmHg 36%
    22:00 +20°C° 0 mm 1 m/S 639 mmHg 39%
    23:00 +19°C° 0 mm 1 m/S 639 mmHg 41%

    Morgen, 24 Oktober, Mittwoch

    Zeit Temperatur Niederschläge Wind Luftdruck Luftfeuchtigkeit
    00:00 +19°C° 0 mm 1 m/S 638 mmHg 43%
    01:00 +18°C° 0 mm 1 m/S 638 mmHg 45%
    02:00 +18°C° 0 mm 1 m/S 638 mmHg 46%
    03:00 +18°C° 0 mm 1 m/S 638 mmHg 47%
    04:00 +16°C° 0 mm 1 m/S 638 mmHg 48%
    05:00 +16°C° 0 mm 1 m/S 638 mmHg 48%
    06:00 +16°C° 0 mm 1 m/S 638 mmHg 49%
    07:00 +15°C° 0 mm 1 m/S 638 mmHg 49%
    08:00 +18°C° 0 mm 1 m/S 638 mmHg 43%
    09:00 +20°C° 0 mm 1 m/S 639 mmHg 37%
    10:00 +19°C° 0 mm 0 m/S 640 mmHg 31%
    11:00 +22°C° 0 mm 1 m/S 640 mmHg 28%
    12:00 +23°C° 0 mm 1 m/S 639 mmHg 25%
    13:00 +24°C° 0 mm 1 m/S 639 mmHg 23%
    14:00 +24°C° 0 mm 1 m/S 639 mmHg 22%
    15:00 +25°C° 0 mm 1 m/S 639 mmHg 22%
    16:00 +25°C° 0 mm 1 m/S 639 mmHg 21%
    17:00 +24°C° 0 mm 1 m/S 639 mmHg 23%
    18:00 +23°C° 0 mm 1 m/S 638 mmHg 26%
    19:00 +22°C° 0 mm 1 m/S 638 mmHg 28%
    20:00 +22°C° 0 mm 1 m/S 638 mmHg 30%
    21:00 +21°C° 0 mm 1 m/S 638 mmHg 31%
    22:00 +21°C° 0 mm 1 m/S 639 mmHg 33%
    23:00 +20°C° 0 mm 1 m/S 638 mmHg 34%

    übermorgen, 25 Oktober, Donnerstag

    Zeit Temperatur Niederschläge Wind Luftdruck Luftfeuchtigkeit
    00:00 +19°C° 0 mm 1 m/S 638 mmHg 35%
    01:00 +19°C° 0 mm 1 m/S 638 mmHg 37%
    02:00 +16°C° 0 mm 0 m/S 638 mmHg 37%
    03:00 +16°C° 0 mm 0 m/S 637 mmHg 38%
    04:00 +15°C° 0 mm 0 m/S 637 mmHg 39%
    05:00 +15°C° 0 mm 0 m/S 637 mmHg 39%
    06:00 +15°C° 0 mm 0 m/S 637 mmHg 40%
    07:00 +15°C° 0 mm 0 m/S 637 mmHg 40%
    08:00 +17°C° 0 mm 0 m/S 638 mmHg 34%
    09:00 +19°C° 0 mm 0 m/S 639 mmHg 29%
    10:00 +23°C° 0 mm 1 m/S 640 mmHg 24%
    11:00 +24°C° 0 mm 1 m/S 640 mmHg 22%
    12:00 +25°C° 0 mm 1 m/S 640 mmHg 21%
    13:00 +26°C° 0 mm 2 m/S 640 mmHg 19%
    14:00 +26°C° 0 mm 2 m/S 639 mmHg 19%
    15:00 +26°C° 0 mm 2 m/S 639 mmHg 19%
    16:00 +26°C° 0 mm 2 m/S 639 mmHg 18%
    17:00 +25°C° 0 mm 2 m/S 639 mmHg 21%
    18:00 +24°C° 0 mm 2 m/S 639 mmHg 23%
    19:00 +23°C° 0 mm 1 m/S 639 mmHg 25%
    20:00 +22°C° 0 mm 1 m/S 639 mmHg 26%
    21:00 +22°C° 0 mm 1 m/S 639 mmHg 27%
    22:00 +21°C° 0 mm 1 m/S 639 mmHg 29%
    23:00 +21°C° 0 mm 1 m/S 639 mmHg 29%

    26 Oktober, Freitag

    Zeit Temperatur Niederschläge Wind Luftdruck Luftfeuchtigkeit
    00:00 +20°C° 0 mm 1 m/S 639 mmHg 30%
    01:00 +20°C° 0 mm 1 m/S 639 mmHg 31%
    02:00 +17°C° 0 mm 0 m/S 639 mmHg 32%
    03:00 +17°C° 0 mm 0 m/S 638 mmHg 33%
    04:00 +16°C° 0 mm 0 m/S 638 mmHg 33%
    05:00 +16°C° 0 mm 0 m/S 638 mmHg 34%
    06:00 +16°C° 0 mm 0 m/S 638 mmHg 34%
    07:00 +16°C° 0 mm 0 m/S 639 mmHg 34%
    08:00 +20°C° 0 mm 1 m/S 640 mmHg 30%
    09:00 +22°C° 0 mm 1 m/S 641 mmHg 26%
    10:00 +23°C° 0 mm 1 m/S 642 mmHg 22%
    11:00 +24°C° 0 mm 2 m/S 641 mmHg 22%
    12:00 +25°C° 0 mm 2 m/S 641 mmHg 21%
    13:00 +26°C° 0 mm 3 m/S 641 mmHg 21%
    14:00 +26°C° 0 mm 3 m/S 641 mmHg 21%
    15:00 +26°C° 0 mm 3 m/S 641 mmHg 21%
    16:00 +26°C° 0 mm 4 m/S 640 mmHg 21%
    17:00 +25°C° 0 mm 3 m/S 640 mmHg 23%
    18:00 +24°C° 0 mm 2 m/S 640 mmHg 25%
    19:00 +23°C° 0 mm 2 m/S 640 mmHg 27%
    20:00 +23°C° 0 mm 1 m/S 640 mmHg 29%
    21:00 +22°C° 0 mm 1 m/S 641 mmHg 30%
    22:00 +21°C° 0 mm 1 m/S 641 mmHg 31%
    23:00 +21°C° 0 mm 1 m/S 640 mmHg 32%

    27 Oktober, Samstag

    Zeit Temperatur Niederschläge Wind Luftdruck Luftfeuchtigkeit
    00:00 +20°C° 0 mm 1 m/S 640 mmHg 33%
    01:00 +20°C° 0 mm 1 m/S 640 mmHg 34%
    02:00 +19°C° 0 mm 1 m/S 639 mmHg 36%
    03:00 +19°C° 0 mm 1 m/S 639 mmHg 38%
    04:00 +17°C° 0 mm 0 m/S 639 mmHg 40%
    05:00 +19°C° 0 mm 1 m/S 639 mmHg 42%
    06:00 +18°C° 0 mm 1 m/S 639 mmHg 43%
    07:00 +18°C° 0 mm 1 m/S 640 mmHg 45%
    08:00 +20°C° 0 mm 1 m/S 640 mmHg 42%
    09:00 +22°C° 0 mm 1 m/S 641 mmHg 38%
    10:00 +23°C° 0 mm 1 m/S 642 mmHg 35%
    11:00 +24°C° 0.1 mm 2 m/S 642 mmHg 35%
    12:00 +25°C° 0.1 mm 2 m/S 642 mmHg 35%
    13:00 +25°C° 0.1 mm 3 m/S 642 mmHg 35%
    14:00 +25°C° 0.1 mm 3 m/S 641 mmHg 37%
    15:00 +24°C° 0.1 mm 3 m/S 641 mmHg 39%
    16:00 +24°C° 0.1 mm 3 m/S 641 mmHg 41%
    17:00 +22°C° 0.1 mm 3 m/S 641 mmHg 44%
    18:00 +21°C° 0.1 mm 2 m/S 641 mmHg 47%
    19:00 +21°C° 0.1 mm 2 m/S 641 mmHg 51%
    20:00 +21°C° 0 mm 1 m/S 641 mmHg 52%
    21:00 +21°C° 0 mm 1 m/S 641 mmHg 53%
    22:00 +19°C° 0 mm 0 m/S 641 mmHg 54%
    23:00 +19°C° 0 mm 0 m/S 641 mmHg 55%

    28 Oktober, Sonntag

    Zeit Temperatur Niederschläge Wind Luftdruck Luftfeuchtigkeit
    00:00 +21°C° 0 mm 1 m/S 640 mmHg 55%
    01:00 +20°C° 0 mm 1 m/S 640 mmHg 56%
    02:00 +20°C° 0 mm 1 m/S 640 mmHg 56%
    03:00 +20°C° 0 mm 1 m/S 640 mmHg 56%
    04:00 +20°C° 0 mm 1 m/S 640 mmHg 56%
    05:00 +19°C° 0 mm 1 m/S 640 mmHg 57%
    06:00 +19°C° 0 mm 1 m/S 640 mmHg 59%
    07:00 +16°C° 0 mm 0 m/S 640 mmHg 61%
    08:00 +18°C° 0 mm 0 m/S 640 mmHg 55%
    09:00 +21°C° 0 mm 1 m/S 641 mmHg 49%
    10:00 +22°C° 0 mm 1 m/S 642 mmHg 44%
    11:00 +23°C° 0 mm 1 m/S 642 mmHg 41%
    12:00 +23°C° 0 mm 2 m/S 642 mmHg 38%
    13:00 +24°C° 0 mm 2 m/S 641 mmHg 35%
    14:00 +24°C° 0 mm 2 m/S 641 mmHg 34%
    15:00 +24°C° 0 mm 2 m/S 641 mmHg 34%
    16:00 +24°C° 0 mm 2 m/S 641 mmHg 34%
    17:00 +23°C° 0 mm 2 m/S 641 mmHg 36%
    18:00 +23°C° 0 mm 1 m/S 641 mmHg 38%
    19:00 +22°C° 0 mm 1 m/S 641 mmHg 41%
    20:00 +22°C° 0 mm 1 m/S 641 mmHg 43%
    21:00 +21°C° 0 mm 1 m/S 641 mmHg 44%
    22:00 +21°C° 0 mm 1 m/S 641 mmHg 46%
    23:00 +20°C° 0 mm 1 m/S 641 mmHg 47%

    29 Oktober, Montag

    Zeit Temperatur Niederschläge Wind Luftdruck Luftfeuchtigkeit
    00:00 +18°C° 0 mm 0 m/S 641 mmHg 48%
    01:00 +18°C° 0 mm 0 m/S 640 mmHg 49%
    02:00 +18°C° 0 mm 0 m/S 640 mmHg 50%
    03:00 +19°C° 0 mm 1 m/S 640 mmHg 50%
    04:00 +19°C° 0 mm 1 m/S 640 mmHg 51%
    05:00 +19°C° 0 mm 1 m/S 640 mmHg 51%
    06:00 +19°C° 0 mm 1 m/S 641 mmHg 51%
    07:00 +19°C° 0 mm 1 m/S 641 mmHg 51%
    08:00 +20°C° 0 mm 1 m/S 641 mmHg 48%
    09:00 +21°C° 0 mm 1 m/S 642 mmHg 45%
    10:00 +22°C° 0 mm 1 m/S 643 mmHg 42%
    11:00 +23°C° 0 mm 1 m/S 642 mmHg 40%
    12:00 +23°C° 0 mm 1 m/S 642 mmHg 38%
    13:00 +24°C° 0 mm 1 m/S 642 mmHg 37%
    14:00 +24°C° 0 mm 1 m/S 642 mmHg 37%
    15:00 +24°C° 0 mm 1 m/S 642 mmHg 36%
    16:00 +24°C° 0 mm 2 m/S 641 mmHg 36%
    17:00 +24°C° 0 mm 1 m/S 641 mmHg 38%
    18:00 +23°C° 0 mm 1 m/S 642 mmHg 40%
    19:00 +22°C° 0 mm 1 m/S 642 mmHg 42%
    20:00 +22°C° 0 mm 1 m/S 642 mmHg 44%
    21:00 +21°C° 0 mm 1 m/S 642 mmHg 46%
    22:00 +21°C° 0 mm 1 m/S 642 mmHg 47%
    23:00 +18°C° 0 mm 0 m/S 641 mmHg 49%
    Mehr zeigen